Regional Weather Roundup
Issued by NWS

Home | Current Version | Previous Version | Graphics & Text | Print | Product List | Glossary On
Versions: 1 2 3 4 5 6 7 8 9 10 11 12 13 14 15 16 17 18 19 20 21 22 23 24 25 26 27 28 29 30 31 32 33 34 35 36 37 38 39 40 41 42 43 44 45 46 47 48 49 50
661
ASUS44 KJAN 261710
RWRMS

MISSISSIPPI HOURLY WEATHER ROUNDUP
NATIONAL WEATHER SERVICE JACKSON MS
1100 AM CST WED NOV 26 2014

NOTE: "FAIR: INDICATES FEW OR NO CLOUDS BELOW 12,000 FEET WITH NO
SIGNIFICANT WEATHER AND/OR OBSTRUCTIONS TO VISIBILITY.

MSZ001>002-007>008-010>013-018>021-025>028-034>036-261800-
NORTHWEST MISSISSIPPI

CITY           SKY/WX    TMP DP  RH WIND       PRES   REMARKS
CLARKSDALE     FAIR      48  37  66 S13       30.09F
CLEVELAND      FAIR      52  42  69 S18       30.08F
GREENWOOD      SUNNY     57  30  35 S15       30.12F
GREENVILLE     MOSUNNY   57  35  43 S20       30.08F
GRENADA        FAIR      54  30  40 S10       30.13F
OLIVE BRANCH   PTSUNNY   45  30  57 S14       30.07F
OXFORD         FAIR      46  27  46 S8        30.12F
TUNICA         CLOUDY    46  34  61 S14       30.08F
$$

MSZ003>006-009-014>017-022>024-029>033-037>039-261800-
NORTHEAST MISSISSIPPI

CITY           SKY/WX    TMP DP  RH WIND       PRES   REMARKS
COLUMBUS AFB   MOSUNNY   50  26  39 S6        30.18F
CORINTH        FAIR      46  27  46 S12       30.13F
GOLDN TRIANGLE SUNNY     48  30  49 S6        30.19F
STARKVILLE     FAIR      52  28  40 S8        30.16F
TUPELO         MOSUNNY   48  30  49 SW12      30.15F
$$

MSZ040-058-261800-
CENTRAL MISSISSIPPI

CITY           SKY/WX    TMP DP  RH WIND       PRES   REMARKS
JACKSON INTL   SUNNY     57  29  34 S12       30.17F
JACKSON HAWKNS SUNNY     58  31  35 S12       30.17F
MERIDIAN KEY   SUNNY     53  23  31 S5        30.21F
MERIDIAN NAS   SUNNY     53  23  31 SW6       30.21F
RAYMOND        FAIR      57  54  88 SW9G18    30.16F
VICKSBURG      SUNNY     58  36  43 SW9G18    30.16F
$$

MSZ059>079-261800-
SOUTH MISSISSIPPI

CITY           SKY/WX    TMP DP  RH WIND       PRES   REMARKS
BROOKHAVEN     FAIR      57  36  44 S9        30.21F
HATTIESBURG    SUNNY     57  26  30 SW8       30.24F
MCCOMB         SUNNY     59  35  40 S10G18    30.21F
NATCHEZ        SUNNY     59  37  44 SW15G21   30.20S
PINE BELT      SUNNY     55  28  35 S7        30.24F
$$

MSZ080>082-261800-
COASTAL MISSISSIPPI

CITY           SKY/WX    TMP DP  RH WIND       PRES   REMARKS
BAY ST LOUIS   SUNNY     55  21  26 SW6       30.27F
BILOXI         SUNNY     55  30  38 SW6       30.27F
PASCAGOULA     SUNNY     59  26  28 W5        30.26F
GULFPORT       SUNNY     54  29  38 S6        30.26F
$$



USA.gov is the U.S. government's official web portal to all federal, state and local government web resources and services.